Wind_Speed
12 12 12 11 10 9 8 7 6 5 5 5 6 7 8 9 11 13 14 16 17 18 20 20 21 23 24 24 25 25 26 27 28 28 28 28 28 28
11 11 12 11 10 9 8 8 7 7 7 7 8 9 10 10 11 13 14 15 17 19 20 22 23 24 25 26 26 27 27 28 29 30 30 30 30 30
11 11 11 11 10 10 10 9 9 9 9 9 10 11 12 13 13 15 16 17 18 19 21 22 24 25 26 27 28 29 29 29 30 31 31 32 32 32
13 12 12 11 11 11 11 11 12 12 12 12 13 13 15 16 17 17 18 20 20 21 22 24 25 26 28 28 29 29 30 30 31 32 33 34 34 34
15 14 14 13 13 13 13 14 14 15 15 16 16 17 18 19 19 20 21 22 24 24 25 26 27 29 30 30 31 31 32 31 32 33 33 35 36 36
17 17 17 16 16 16 16 17 17 18 19 19 20 21 22 22 23 23 24 25 26 27 28 28 29 31 32 32 33 34 34 34 34 35 35 34 36 36
19 20 20 19 19 19 20 20 21 22 23 24 24 25 26 27 27 28 28 29 29 30 31 31 32 33 34 35 35 36 36 37 36 36 36 36 37 37
22 23 23 22 22 23 23 24 25 25 26 27 28 29 30 30 31 32 32 33 33 33 34 34 35 35 36 37 38 38 39 39 40 39 39 40 40 40
25 25 26 26 26 26 27 28 29 30 31 32 33 34 34 34 35 35 36 37 36 36 36 36 37 37 38 39 40 41 42 42 42 42 42 41 42 42
28 28 28 28 29 30 31 32 33 34 35 36 38 38 39 40 40 41 41 40 40 40 40 40 40 40 40 41 42 43 44 45 45 45 45 44 44 44
31 31 31 32 32 33 34 35 36 37 38 40 41 42 43 44 45 45 45 45 44 44 45 45 44 44 44 44 45 45 46 47 48 49 49 48 47 47
34 34 34 35 36 36 37 38 39 40 41 42 44 45 46 48 48 49 49 48 48 48 49 49 49 49 48 48 48 48 49 49 50 51 51 51 51 50
36 37 37 37 38 39 40 41 42 43 44 46 47 48 48 49 50 51 52 52 52 52 52 52 52 52 53 51 51 51 52 51 51 52 52 52 52 52
39 39 39 40 40 41 42 43 45 46 47 48 49 49 49 50 51 52 53 54 54 54 54 54 54 53 54 54 53 53 54 54 53 53 54 55 54 54
40 40 41 42 42 44 45 47 48 49 50 51 51 52 52 53 53 54 54 54 54 55 55 55 55 54 55 55 54 54 54 55 54 54 54 55 56 57
42 42 43 44 45 47 48 50 51 52 53 53 54 54 55 55 55 56 56 56 56 56 56 55 55 55 55 56 56 55 55 55 55 55 55 55 55 56
45 45 46 47 48 49 51 52 53 55 56 56 57 57 57 57 57 57 57 57 57 56 55 54 55 55 56 56 56 55 55 55 55 55 56 57 56 56
47 48 49 50 51 52 54 55 56 57 58 59 60 59 59 59 59 58 58 57 57 56 55 54 55 56 56 55 55 55 55 55 55 55 56 56 56 57
50 51 52 53 54 56 57 58 59 60 61 61 61 61 60 59 59 58 57 56 56 55 55 55 55 56 55 54 53 54 55 55 55 56 56 56 56 56
52 54 55 56 57 58 60 60 61 62 63 62 61 61 60 59 57 57 56 56 56 56 55 54 54 54 54 54 53 53 55 55 55 55 55 55 56 56
55 56 57 58 59 61 61 62 63 64 63 62 61 60 59 58 57 57 56 56 56 55 54 52 52 53 54 53 53 52 53 55 55 54 54 54 54 54
57 58 59 60 62 63 63 64 64 64 63 62 61 60 59 58 57 57 56 55 55 54 52 50 49 50 51 51 50 49 49 50 51 52 52 51 52 52
59 60 61 62 63 64 64 64 64 63 63 62 61 60 59 57 56 56 54 53 53 51 49 47 45 45 46 46 45 44 44 46 47 48 48 48 50 49
Wind_Direction
21 22 22 23 23 25 22 16 8 353 332 315 300 289 283 278 271 267 263 261 259 257 254 251 249 248 247 247 246 243 240 240 239 239 240 241 241 240
11 11 11 11 10 8 5 1 355 347 332 314 303 297 293 290 282 276 271 268 265 262 258 255 253 252 249 249 249 249 246 245 244 243 242 243 244 244
357 358 359 357 355 352 347 343 340 334 327 317 308 301 296 291 288 283 278 275 273 269 264 261 257 254 253 252 251 251 250 249 248 247 246 245 245 245
347 346 345 342 339 335 332 328 325 324 320 315 310 304 299 294 291 288 284 279 276 272 268 266 264 259 257 256 254 254 253 252 251 250 249 248 247 247
339 336 333 329 327 325 322 318 316 314 313 309 305 302 299 296 294 291 288 284 279 275 273 270 267 264 260 258 256 255 255 254 252 251 251 250 249 249
330 327 324 321 318 316 314 312 310 309 307 305 303 301 298 296 294 291 289 287 283 279 276 273 269 266 263 261 258 256 256 255 254 253 252 252 251 250
323 320 317 315 312 310 308 307 306 305 304 303 301 300 297 295 293 291 289 287 286 282 278 274 271 267 264 262 259 257 256 255 253 253 253 252 251 251
316 314 312 310 308 305 305 304 304 303 303 302 300 299 297 295 294 292 290 288 286 283 279 275 272 270 267 264 261 258 256 255 254 253 252 252 252 251
310 310 308 306 305 303 303 302 302 302 302 301 300 299 297 295 294 292 290 288 286 283 280 277 274 271 268 266 264 261 258 256 254 255 255 253 252 251
306 305 305 303 302 301 301 302 302 302 302 301 300 299 298 297 295 293 291 288 285 283 280 278 275 272 270 268 265 263 260 258 256 255 254 254 253 252
304 304 303 301 301 300 300 300 301 301 301 300 300 299 298 297 296 293 291 288 285 282 280 278 275 273 270 267 266 264 262 259 257 256 255 254 253 252
303 302 301 300 300 299 299 300 300 300 300 300 300 299 299 297 296 293 291 288 286 283 280 277 275 273 270 267 265 264 263 260 258 256 254 254 253 252
302 301 300 300 300 299 299 300 300 300 300 300 300 299 298 297 296 294 292 289 287 284 280 277 275 273 271 267 265 264 263 260 258 256 254 253 252 251
301 301 300 300 299 299 299 300 300 301 301 301 300 299 298 297 296 295 293 290 287 285 282 278 275 273 271 269 267 264 262 260 258 256 254 252 251 251
301 301 300 300 299 299 300 301 301 302 301 301 300 299 298 297 296 294 293 290 288 287 284 279 275 273 271 270 267 265 262 259 258 256 253 251 250 250
300 300 300 300 300 300 301 302 302 302 302 301 300 299 298 297 295 294 292 290 289 287 286 281 276 273 271 269 267 265 262 259 256 255 253 250 249 248
300 299 299 300 300 301 302 302 303 303 302 302 301 300 299 297 295 294 292 291 289 287 284 281 276 272 270 269 267 264 261 258 256 254 251 249 248 247
300 300 300 300 300 301 302 303 303 303 303 303 302 300 299 297 296 294 293 291 289 287 284 281 277 273 270 267 265 262 259 258 256 254 251 249 247 247
300 300 301 301 301 302 302 303 303 304 303 303 302 301 299 297 296 294 293 291 290 287 285 282 277 273 270 267 263 260 259 258 257 254 251 249 246 245
300 300 301 301 302 302 303 304 304 304 304 303 302 300 299 297 296 294 293 291 290 288 285 282 278 274 271 268 263 259 257 257 256 254 250 248 245 244
300 300 301 302 302 303 304 304 304 304 304 303 302 300 298 297 296 295 294 292 290 288 285 282 278 274 269 267 263 259 257 255 254 252 248 246 243 243
301 301 301 302 303 303 304 304 304 304 303 302 301 300 298 297 297 296 294 292 290 288 285 282 279 274 268 266 263 259 256 252 250 248 245 245 242 242
301 301 302 303 303 304 304 304 304 305 304 303 302 300 299 298 296 295 294 292 290 287 284 281 277 272 269 265 260 257 254 250 247 243 242 240 238 239
Height
5858 5857 5856 5855 5853 5853 5852 5851 5851 5850 5850 5849 5849 5849 5849 5849 5849 5849 5849 5849 5850 5850 5851 5852 5853 5854 5856 5857 5859 5860 5862 5864 5866 5868 5870 5871 5873 5875
5858 5857 5856 5854 5853 5852 5852 5851 5850 5849 5848 5848 5847 5847 5846 5846 5846 5846 5846 5846 5846 5846 5847 5847 5848 5849 5851 5852 5853 5855 5856 5858 5860 5862 5864 5866 5868 5869
5858 5857 5855 5854 5853 5851 5850 5850 5849 5848 5847 5846 5845 5844 5844 5843 5842 5842 5842 5841 5841 5841 5841 5842 5842 5843 5845 5846 5847 5849 5850 5852 5853 5855 5857 5859 5861 5863
5857 5856 5854 5853 5851 5850 5849 5848 5847 5846 5845 5844 5842 5841 5840 5839 5838 5837 5837 5836 5836 5836 5836 5836 5836 5837 5838 5839 5840 5841 5843 5844 5846 5847 5849 5851 5853 5855
5856 5854 5852 5850 5849 5847 5846 5845 5844 5842 5841 5840 5838 5837 5836 5834 5833 5832 5830 5830 5829 5829 5829 5828 5829 5829 5830 5831 5832 5833 5835 5836 5838 5839 5841 5843 5845 5846
5853 5851 5849 5847 5845 5844 5843 5841 5840 5838 5837 5835 5833 5832 5830 5828 5827 5825 5824 5823 5822 5821 5820 5820 5820 5821 5821 5822 5824 5825 5826 5827 5829 5830 5832 5834 5836 5837
5849 5847 5845 5843 5841 5839 5838 5836 5834 5833 5831 5829 5827 5825 5823 5821 5819 5817 5816 5815 5813 5812 5811 5811 5810 5811 5811 5812 5813 5814 5816 5817 5819 5821 5822 5824 5826 5828
5844 5842 5840 5838 5835 5834 5832 5830 5828 5826 5824 5822 5820 5817 5815 5812 5810 5808 5806 5805 5804 5802 5800 5800 5799 5799 5800 5801 5802 5803 5804 5806 5808 5810 5812 5813 5815 5818
5838 5836 5833 5831 5829 5827 5825 5823 5820 5818 5815 5813 5810 5807 5805 5803 5800 5798 5795 5793 5792 5790 5789 5788 5787 5787 5788 5788 5789 5791 5792 5793 5796 5798 5800 5802 5804 5806
5832 5829 5826 5823 5821 5818 5816 5814 5811 5809 5806 5803 5800 5796 5793 5790 5787 5785 5782 5780 5779 5777 5775 5775 5774 5774 5774 5775 5776 5777 5778 5780 5782 5784 5787 5789 5792 5794
5824 5821 5818 5815 5812 5810 5807 5805 5802 5799 5795 5792 5788 5784 5780 5776 5773 5770 5767 5765 5764 5763 5760 5759 5759 5758 5759 5760 5761 5762 5763 5765 5767 5770 5773 5775 5778 5781
5816 5812 5809 5806 5803 5800 5797 5794 5791 5788 5784 5780 5776 5772 5767 5762 5757 5753 5750 5748 5746 5745 5743 5741 5741 5740 5742 5744 5744 5745 5747 5749 5751 5754 5757 5760 5763 5766
5806 5802 5799 5795 5792 5789 5785 5782 5778 5775 5771 5766 5762 5757 5752 5747 5742 5737 5733 5730 5727 5726 5723 5721 5721 5721 5721 5724 5726 5727 5729 5731 5734 5737 5740 5744 5747 5750
5795 5791 5788 5784 5780 5777 5773 5769 5765 5761 5757 5752 5747 5742 5737 5732 5727 5722 5716 5712 5708 5705 5703 5701 5701 5701 5701 5703 5706 5708 5709 5712 5715 5718 5722 5726 5730 5733
5784 5780 5776 5772 5768 5764 5760 5756 5752 5747 5742 5737 5732 5727 5721 5715 5710 5705 5700 5694 5690 5687 5683 5681 5680 5680 5681 5683 5685 5688 5690 5692 5695 5699 5703 5707 5711 5716
5772 5768 5764 5760 5756 5752 5747 5742 5737 5732 5726 5721 5715 5710 5704 5698 5692 5687 5682 5677 5673 5670 5665 5661 5660 5659 5660 5662 5664 5667 5669 5672 5676 5679 5683 5688 5692 5697
5760 5756 5752 5747 5743 5738 5733 5727 5722 5716 5710 5704 5698 5693 5686 5680 5675 5669 5663 5658 5654 5650 5647 5644 5641 5639 5640 5641 5644 5646 5648 5651 5655 5659 5663 5668 5674 5679
5747 5743 5738 5733 5728 5723 5717 5712 5705 5699 5693 5686 5680 5674 5667 5661 5656 5650 5644 5639 5634 5631 5628 5625 5622 5620 5621 5622 5623 5625 5628 5631 5635 5638 5642 5648 5655 5660
5733 5728 5723 5718 5713 5707 5701 5695 5689 5682 5675 5668 5661 5655 5648 5642 5636 5631 5625 5620 5615 5612 5608 5605 5602 5600 5600 5603 5606 5606 5607 5611 5615 5618 5623 5628 5635 5641
5719 5713 5708 5702 5696 5690 5684 5677 5671 5664 5657 5650 5643 5636 5629 5623 5617 5612 5607 5601 5597 5592 5589 5586 5583 5581 5580 5582 5585 5589 5589 5591 5594 5598 5603 5608 5615 5621
5703 5697 5692 5686 5679 5673 5666 5659 5652 5645 5638 5631 5624 5617 5610 5604 5599 5594 5588 5583 5577 5573 5570 5568 5564 5562 5561 5561 5564 5569 5571 5572 5574 5578 5584 5589 5596 5602
5687 5681 5675 5668 5662 5655 5648 5641 5634 5626 5619 5612 5605 5599 5592 5586 5580 5575 5569 5564 5559 5555 5551 5548 5546 5544 5542 5542 5545 5548 5552 5554 5557 5560 5565 5571 5577 5585
5670 5664 5658 5651 5644 5637 5630 5622 5615 5608 5600 5593 5587 5580 5574 5568 5562 5557 5551 5546 5541 5536 5533 5530 5528 5527 5526 5526 5527 5530 5534 5537 5540 5544 5550 5555 5562 5569